SCP
0 0 0 0 0 0 1 1 1 1 1 2 2 3 3 4 4 3 3 3 4 3 1 0 0 0 0 0 0 0 0 0 0 0 0 0 0 0 0 0 0 0 0 0
0 0 0 0 0 0 1 1 1 1 1 2 2 3 4 3 3 2 3 4 4 3 1 0 0 0 0 0 0 0 0 0 0 0 0 0 0 0 0 0 0 0 0 0
0 0 0 0 0 0 1 1 1 2 2 2 3 5 5 3 2 2 2 4 3 2 1 1 0 0 0 0 0 0 0 0 0 0 0 0 0 0 0 0 0 0 0 0
1 0 0 0 0 1 1 2 2 2 3 3 5 7 6 4 2 2 2 3 2 2 1 1 1 0 0 0 0 0 0 0 0 0 0 0 0 0 0 0 0 0 0 0
0 0 0 0 0 1 1 2 3 3 3 3 5 6 5 3 2 2 2 2 2 1 1 1 0 0 0 0 0 0 0 0 0 0 0 0 0 0 0 0 0 0 0 0
0 0 0 0 0 1 1 2 3 3 2 2 3 3 3 2 2 1 1 1 1 1 1 1 0 0 0 0 0 0 0 0 0 0 0 0 0 0 0 0 0 0 0 0
0 0 0 1 1 1 1 2 2 2 2 1 2 2 2 1 1 1 0 0 0 0 0 0 0 0 0 0 0 0 0 0 0 0 0 0 0 0 0 0 0 0 0 0
0 0 0 1 1 1 1 1 2 2 1 1 2 2 1 1 0 0 0 0 0 0 0 0 0 0 0 0 0 0 0 0 0 0 0 0 0 0 0 0 0 0 0 0
0 0 0 1 1 1 1 1 1 1 1 1 1 1 1 0 0 0 0 0 0 0 0 0 0 0 0 0 0 0 0 0 0 0 0 0 0 0 0 0 0 0 0 0
0 0 1 1 2 1 1 1 1 1 1 1 1 1 1 0 0 0 0 0 0 0 0 0 0 0 0 0 0 0 0 0 0 0 0 0 0 0 0 0 0 0 0 0
0 1 1 1 2 1 1 1 1 1 0 0 0 1 1 0 0 0 0 0 0 0 0 0 0 0 0 0 0 0 0 0 0 0 0 0 0 0 0 0 0 0 0 0
0 1 1 1 1 1 1 0 1 0 0 0 0 1 1 1 0 0 0 0 0 0 0 0 0 0 0 0 0 0 0 0 0 0 0 0 0 0 0 0 0 0 0 0
1 1 1 1 1 1 0 0 0 0 0 0 0 1 1 1 0 0 0 0 0 0 0 0 0 0 0 0 0 0 0 0 0 0 0 0 0 0 0 0 0 0 0 0
1 1 1 1 1 1 0 0 0 0 0 0 0 0 1 0 0 0 0 0 0 0 0 0 0 0 0 0 0 0 0 0 0 0 0 0 0 0 0 0 0 0 0 0
1 1 1 1 1 0 0 0 0 0 0 0 0 0 1 0 0 0 0 0 0 0 0 0 0 0 0 0 0 0 0 0 0 0 0 0 0 0 0 0 0 0 0 0
1 1 1 1 1 0 0 0 0 0 0 0 0 0 0 0 0 0 0 0 0 0 0 0 0 0 0 0 0 0 0 0 0 0 0 0 0 0 0 0 0 0 0 0
1 1 1 0 0 0 0 0 0 0 0 0 0 0 0 0 0 0 0 0 0 0 0 0 0 0 0 0 0 0 0 0 0 0 0 0 0 0 0 0 0 0 0 0
1 0 0 0 0 0 0 0 0 0 0 0 0 0 0 0 0 0 0 0 0 0 0 0 0 0 0 0 0 0 0 0 0 0 0 0 0 0 0 0 0 0 0 0
0 0 0 0 0 0 0 0 0 0 0 0 0 0 1 1 0 0 0 0 0 0 0 0 0 0 0 0 0 0 0 0 0 0 0 0 0 0 0 0 0 0 0 0
0 0 0 0 0 0 0 0 0 0 0 0 0 0 1 1 0 0 0 0 0 0 0 0 0 0 0 0 0 0 0 0 0 0 0 0 0 0 0 0 0 0 0 0
0 0 0 0 0 0 0 0 0 0 0 0 0 1 1 1 0 0 0 0 0 0 0 0 0 0 0 0 0 0 0 0 0 0 0 0 0 0 0 0 0 0 0 0
0 0 0 0 0 0 0 0 0 0 0 0 0 1 1 0 0 0 0 0 0 0 0 0 0 0 0 0 0 0 0 0 0 0 0 0 0 0 0 0 0 0 0 0
1 1 1 1 1 1 1 1 1 1 1 0 0 1 1 0 0 0 0 0 0 0 0 0 0 0 0 0 0 0 0 0 0 0 0 0 0 0 0 0 0 0 0 0
1 1 1 1 1 1 1 1 1 1 1 0 0 1 1 0 0 0 0 0 0 0 0 0 0 0 0 0 0 0 0 0 0 0 0 0 0 0 0 0 0 0 0 0
1 2 2 2 1 1 1 1 1 1 1 1 0 0 0 0 0 0 0 0 0 0 0 0 0 0 0 0 0 0 0 0 0 0 0 0 0 0 0 0 0 0 0 0
2 2 2 2 2 1 1 1 1 1 1 1 1 0 0 0 0 0 0 0 0 0 0 0 0 0 0 0 0 0 0 0 0 0 0 0 0 0 0 0 0 0 0 0
2 2 2 2 2 1 1 1 0 0 1 1 1 1 0 0 0 0 0 0 0 0 0 0 0 0 0 0 0 0 0 0 0 0 0 0 0 0 0 0 0 0 0 0
Wind_Speed
6 7 9 10 11 9 8 9 7 3 3 5 8 10 12 13 13 13 12 11 9 8 7 6 6 5 5 5 4 5 5 6 6 5 5 5 5 5 5 5 6 6 7 7
9 9 9 10 9 8 7 7 6 4 5 8 10 10 11 12 12 12 12 11 10 8 7 6 6 6 5 5 5 5 5 5 5 5 5 5 5 5 5 6 6 7 8 8
9 8 7 5 6 5 5 7 6 5 6 9 10 10 10 9 10 11 11 11 10 9 7 6 6 6 5 4 4 5 5 5 5 5 6 5 6 6 6 6 6 7 7 8
7 7 4 1 4 5 6 9 10 9 9 10 10 10 9 8 9 10 11 11 10 9 8 7 6 6 4 4 4 5 5 5 5 4 5 5 5 6 6 5 5 5 6 6
5 5 3 3 6 6 5 8 10 9 10 11 11 11 9 7 8 9 10 10 9 9 9 7 6 6 5 4 4 5 5 5 5 5 5 5 5 5 5 4 4 5 5 5
6 5 3 4 6 4 2 4 6 6 7 8 7 4 6 8 10 11 11 9 9 9 8 7 6 5 4 5 5 5 5 5 5 5 6 5 5 4 4 4 4 5 5 5
6 5 1 6 9 6 2 3 3 4 6 6 3 5 12 12 12 11 11 10 9 8 7 7 6 5 5 5 5 5 5 5 6 5 5 5 4 3 3 3 4 4 4 4
4 3 2 9 8 7 5 3 4 5 7 8 11 15 15 14 13 12 11 10 9 8 7 6 6 6 6 5 5 5 5 5 5 3 4 5 3 3 3 3 3 3 3 3
2 2 3 5 5 5 4 4 5 7 9 11 12 14 14 13 12 11 10 9 8 8 8 7 6 6 6 5 5 5 5 4 4 4 3 3 2 2 1 1 1 1 2 2
2 3 5 6 6 6 5 6 7 8 9 11 12 14 14 12 11 11 10 9 8 9 8 7 7 6 6 6 5 5 5 4 3 3 3 3 2 2 3 4 3 3 2 2
1 2 4 6 5 6 6 7 8 8 9 10 12 13 12 11 11 10 9 9 8 8 8 8 8 7 6 6 5 5 4 3 3 4 4 4 5 5 5 5 4 4 5 4
2 4 2 2 3 3 5 7 8 8 9 10 11 12 11 11 10 10 10 9 8 8 9 8 8 7 6 6 5 4 4 3 3 3 3 4 5 4 7 5 5 6 5 4
2 2 2 2 2 2 5 6 7 8 9 10 10 11 10 10 10 10 10 10 10 10 9 8 8 7 6 5 5 3 2 2 2 3 3 3 4 5 4 3 2 2 2 3
1 1 2 2 2 3 6 7 7 9 9 10 10 10 10 10 11 11 10 10 10 9 9 8 8 7 6 5 5 4 3 3 2 2 2 3 3 4 4 5 5 4 3 3
1 1 2 2 4 5 6 8 8 9 10 10 10 10 11 11 11 10 10 10 10 9 9 9 8 7 6 5 4 3 3 2 2 2 2 2 2 3 3 3 4 5 5 4
2 2 3 4 5 7 8 8 8 10 10 11 11 11 11 10 10 10 10 10 10 10 9 8 8 7 7 6 5 3 2 1 1 2 2 2 3 2 2 2 2 3 4 5
3 3 4 5 6 7 8 8 8 10 10 11 11 12 11 11 10 10 10 10 9 8 8 8 8 8 8 7 6 5 5 5 5 5 4 3 2 2 2 2 2 3 2 4
5 5 5 6 6 7 8 9 9 10 10 11 12 12 12 11 10 10 10 10 9 8 8 8 8 8 8 7 5 4 4 5 6 5 4 3 2 2 3 3 3 3 4 5
3 4 5 6 6 6 8 8 9 10 11 11 12 12 11 11 10 10 10 10 10 10 9 9 8 7 7 6 5 5 5 5 5 4 3 3 4 4 3 3 3 3 3 4
2 3 4 6 7 7 8 8 9 10 10 11 11 12 11 11 11 11 11 10 8 8 8 9 9 8 7 7 6 7 6 5 5 5 5 5 5 4 4 4 3 2 2 2
2 3 4 5 6 6 7 9 9 10 10 11 11 11 11 11 11 11 10 9 8 8 9 10 8 8 7 6 8 8 7 6 5 5 5 5 4 4 4 3 3 3 3 3
1 2 3 4 5 5 6 7 9 10 10 10 12 12 12 12 12 11 10 7 9 10 9 9 9 9 7 7 8 8 7 7 6 5 4 4 4 4 4 3 3 3 3 3
1 2 2 4 4 5 6 7 9 9 10 11 11 11 11 10 10 9 9 8 9 11 10 9 9 10 9 8 8 8 8 7 7 6 5 4 4 4 4 4 4 3 3 3
2 2 2 3 4 5 6 7 8 8 9 10 10 11 11 9 9 9 8 11 11 12 10 8 11 12 10 9 9 9 8 7 7 7 6 6 5 5 4 4 4 4 4 5
3 3 4 4 5 5 6 7 8 9 10 9 10 12 11 9 9 9 9 11 13 13 11 10 13 13 11 10 10 9 8 7 6 6 6 5 5 5 5 5 5 5 5 5
4 4 4 4 4 4 5 6 7 8 8 8 8 9 10 9 10 10 8 11 15 13 12 10 11 12 11 12 11 10 9 8 8 8 8 7 7 7 5 5 6 5 5 5
5 5 4 6 6 6 5 6 7 8 8 9 9 9 10 10 10 10 11 11 12 12 12 11 11 12 12 12 12 11 10 9 9 8 8 8 7 7 7 7 6 6 5 6
Wind_Direction
289 282 267 270 277 290 296 306 312 338 103 127 132 128 128 133 137 138 136 133 131 126 120 113 107 101 92 83 74 74 77 73 72 72 61 56 53 51 50 48 54 52 53 52
287 268 266 275 290 298 310 320 337 19 68 95 110 116 123 135 142 143 140 136 131 126 123 118 116 108 96 88 83 82 82 81 80 77 71 62 59 56 58 57 56 58 53 53
292 292 282 282 322 333 358 13 12 28 84 106 111 117 129 140 145 144 140 136 133 131 124 117 110 104 105 103 94 89 85 84 82 80 75 65 64 64 61 60 62 64 63 60
294 309 293 358 5 7 39 47 55 75 88 100 109 113 116 127 135 139 138 135 132 127 121 119 113 107 104 104 103 101 93 87 89 89 86 77 69 64 65 65 67 70 69 65
294 298 288 351 10 8 34 55 49 78 90 96 108 112 104 111 123 125 129 129 126 123 121 119 116 117 112 107 109 106 100 88 82 82 83 81 77 71 69 72 72 75 74 66
283 293 306 3 343 340 48 81 44 83 107 119 136 133 131 129 122 118 121 122 125 125 125 123 124 125 121 111 103 99 96 90 85 83 85 81 73 71 73 71 74 79 72 64
276 283 28 357 339 344 17 64 47 97 114 127 128 90 126 129 125 123 126 130 132 131 126 125 126 124 119 110 106 100 98 95 90 91 96 91 80 73 76 75 75 83 85 77
307 293 25 4 13 39 51 63 78 97 108 104 102 113 124 129 129 130 130 133 132 127 124 125 127 125 119 113 113 105 100 95 94 93 93 100 96 81 85 94 101 104 110 102
6 42 73 42 53 67 70 82 92 104 109 114 120 128 131 132 135 136 136 134 132 130 127 128 132 133 124 118 118 116 110 104 102 94 79 81 91 105 115 122 125 122 130 121
37 66 60 52 55 64 76 89 102 111 119 126 131 134 136 137 139 140 139 139 138 135 134 134 137 132 124 122 123 119 117 116 117 111 100 80 44 47 54 41 34 40 50 80
18 59 72 51 48 63 85 100 105 112 123 130 135 137 139 140 142 142 141 140 139 139 139 138 135 133 131 128 126 127 130 135 131 121 103 85 70 46 57 58 54 41 27 31
1 22 40 51 50 78 103 109 114 120 123 130 137 141 141 142 145 145 143 142 144 145 142 140 139 137 132 132 139 144 148 148 144 142 142 138 127 103 59 79 85 77 68 66
329 355 68 97 83 99 118 124 128 129 133 137 139 141 144 144 147 146 146 148 150 149 146 146 146 144 142 144 145 147 147 148 157 154 156 157 153 150 145 128 88 77 79 84
97 158 167 164 135 134 132 132 131 131 136 139 141 145 147 148 149 151 151 151 153 152 149 151 153 151 149 150 154 164 166 160 187 176 166 166 171 173 162 163 169 173 191 217
225 176 178 161 153 145 140 142 144 145 146 145 148 151 153 153 153 154 154 155 154 153 154 156 155 152 153 156 164 177 186 167 186 174 181 180 184 181 162 165 167 164 163 188
253 183 172 182 171 159 160 160 156 152 152 152 154 156 156 155 154 155 156 159 162 164 162 162 162 162 164 166 175 179 170 145 229 228 205 206 212 195 169 170 172 170 170 171
243 218 200 194 182 175 172 171 164 158 157 160 161 159 158 158 158 160 163 165 165 165 165 167 170 171 174 184 202 198 182 176 210 238 226 219 214 208 185 195 193 179 160 145
236 222 209 200 189 177 171 169 165 161 163 165 163 161 164 166 168 167 168 165 166 169 171 174 175 184 189 194 208 218 204 190 197 217 217 215 223 225 210 211 206 188 164 171
211 202 196 184 180 174 170 167 165 164 164 167 167 167 171 172 171 169 170 173 175 177 177 178 180 196 197 196 209 223 229 216 195 200 214 199 224 238 233 230 226 204 199 181
206 190 182 175 175 171 167 165 164 163 165 169 170 170 172 174 174 173 176 182 185 180 172 173 183 202 204 197 220 236 230 224 212 205 214 211 212 221 227 228 225 211 213 212
217 194 179 175 167 165 167 167 166 168 170 172 175 177 176 177 178 178 183 187 182 180 175 173 193 204 212 201 204 237 237 232 226 218 214 214 217 226 231 232 229 222 222 223
215 195 177 170 163 163 168 172 173 174 175 178 182 182 179 181 185 187 192 192 180 177 184 189 201 204 204 217 218 227 230 235 234 226 219 219 225 231 230 231 232 232 232 232
231 207 179 173 175 175 175 182 182 182 183 186 187 187 187 187 188 191 193 193 190 181 197 202 192 184 192 221 235 233 230 233 239 236 228 220 226 234 233 232 237 242 240 239
236 215 192 181 182 189 190 193 189 189 192 194 193 191 191 192 194 201 202 190 191 179 200 194 180 182 195 224 236 239 231 228 236 239 236 230 225 223 228 232 236 238 239 245
233 220 204 193 198 199 194 197 193 193 198 200 199 194 196 201 200 200 202 189 179 180 198 191 187 188 205 227 233 236 237 238 242 251 250 249 246 234 228 233 239 241 243 242
226 221 211 212 214 215 205 200 199 197 201 203 202 197 198 201 203 200 199 195 187 193 205 194 191 199 218 229 234 237 237 231 232 239 246 254 255 255 253 248 249 251 254 253
222 217 209 213 214 215 213 205 206 205 205 204 205 201 199 201 203 204 203 199 191 195 209 209 202 204 216 225 232 235 237 238 238 238 238 241 248 252 251 249 251 253 255 258